[Date Prev][Date Next][Thread Prev][Thread Next] - [Date Index][Thread Index][Author Index]

2 Line ISS Keps 8-19



ISS
1 25544U 98067A   02231.12261358  .00042754  00000-0  56034-3 0   596
2 25544  51.6390  97.1174 0016856 155.2804 342.9684 15.57969608213846


----
Via the sarex mailing list at AMSAT.ORG courtesy of AMSAT-NA.
To unsubscribe, send "unsubscribe sarex" to Majordomo@amsat.org



AMSAT Top AMSAT Home